Location: *
(43.9900°N, 3.4811°E)
Time: 20:49:18
(UTC+00:00)

SJ 16-02 - Pass Details

Date: 25 August 2019
Orbit: 605 x 618 km, 75.0° (Epoch: 15 September)

Event Time Altitude Azimuth Distance (km) Brightness Sun altitude
Rises 20:14:40 0° 199° (SSW) 2,861 4.6 -17.1°
Reaches altitude 10° 20:16:53 10° 199° (SSW) 1,964 3.8 -17.4°
Maximum altitude 20:21:17 86° 288° (WNW) 622 1.3 -18.1°
Drops below altitude 10° 20:25:44 10° 18° (NNE) 1,986 4.2 -18.7°
Sets 20:27:59 0° 19° (NNE) 2,898 5.0 -19.0°
